Probability
6 12 25 39 38 19 4 0 0 0 0 0 0 0 0 0 0 1 4 9 13 9 3 4 4 2 0 0 0 0 0 0 0 0 0 0 0 0 0 0 0 0 0 0 0 0 0 0 0
6 11 21 31 27 11 2 0 0 0 0 0 0 0 0 0 0 1 4 8 10 7 4 4 4 2 0 0 0 0 0 0 0 0 0 0 0 0 0 0 0 0 0 0 0 0 0 0 0
6 9 16 20 13 3 0 0 0 0 0 0 0 0 0 0 0 2 5 7 6 6 6 7 6 2 1 1 1 0 0 0 0 0 0 0 0 0 0 0 0 0 0 0 0 0 0 0 0
8 9 11 9 4 1 0 0 0 0 0 1 1 1 1 1 1 4 7 7 6 6 7 7 7 4 2 2 2 1 0 0 0 0 0 0 0 0 0 0 0 0 0 0 0 0 0 0 0
9 9 7 3 0 0 0 0 0 0 0 1 4 6 5 2 2 6 8 8 8 8 7 7 7 6 3 3 3 2 1 0 0 0 0 0 0 0 0 0 0 0 0 0 0 0 0 0 0
6 5 4 1 0 0 0 0 0 0 0 1 5 11 9 4 4 6 9 11 12 12 9 8 8 6 4 3 3 2 1 0 0 0 0 0 0 0 0 0 0 0 0 0 0 0 0 0 0
2 2 1 0 0 0 0 0 0 0 0 0 5 14 17 14 10 9 11 16 19 18 13 9 7 6 4 3 3 2 1 0 0 0 0 0 0 0 0 0 0 0 0 0 0 0 0 0 0
1 0 0 0 0 0 0 0 0 0 0 0 4 15 27 28 20 16 17 22 26 23 15 10 7 6 5 4 3 3 2 1 0 0 0 0 0 0 0 0 0 0 0 0 0 0 0 0 0
0 0 0 0 0 0 0 0 0 0 1 3 7 21 36 36 28 25 26 30 33 28 19 13 9 7 5 5 4 3 3 1 0 0 0 0 0 0 0 0 0 0 0 0 0 0 0 0 0
0 0 0 0 0 0 0 0 0 0 2 8 18 33 46 44 37 35 34 36 38 33 24 19 13 8 5 5 4 4 4 2 1 0 0 0 0 0 0 0 0 0 0 0 0 0 0 0 0
0 0 0 0 0 0 0 0 0 0 2 12 29 46 55 54 48 45 42 41 41 36 29 26 21 15 11 10 8 7 6 4 2 1 0 0 0 0 0 0 0 0 0 0 0 0 0 0 0
0 0 0 0 0 0 0 0 0 1 3 12 30 50 59 58 56 53 49 47 46 43 37 35 32 30 29 25 16 12 9 7 6 5 3 2 1 0 0 0 0 0 0 0 0 0 0 0 0
0 0 0 0 0 0 0 0 0 1 5 12 28 47 57 58 59 59 58 57 58 55 48 44 42 44 47 41 28 19 16 14 13 10 6 4 3 2 1 0 0 0 0 0 0 0 0 0 0
0 0 0 0 0 0 0 0 1 3 7 14 26 43 56 61 64 66 68 69 69 66 58 51 48 50 52 46 33 26 23 21 19 15 9 5 6 6 4 1 0 0 0 0 0 0 0 0 0
0 0 0 0 0 0 0 0 1 3 7 14 23 39 58 68 70 73 78 79 77 73 65 54 48 47 46 39 31 27 24 21 22 20 14 9 9 11 7 2 0 0 0 0 0 0 0 0 0
0 0 0 0 0 0 0 1 3 3 6 13 22 39 60 73 75 77 82 83 80 75 67 57 47 40 36 32 29 27 24 24 28 28 22 15 14 15 10 4 1 1 0 0 0 0 0 0 0
0 0 0 0 0 0 0 1 3 3 5 12 23 42 63 73 74 78 83 83 81 76 68 60 51 41 34 30 31 31 29 30 34 33 28 24 22 20 14 9 6 3 2 2 2 1 1 0 1
0 0 0 0 0 0 0 0 2 3 5 13 27 48 63 68 70 76 80 80 79 76 69 63 56 48 38 31 31 32 32 33 35 33 30 30 29 24 18 14 11 8 6 6 5 4 3 2 2
0 0 0 0 0 0 0 0 1 2 5 14 32 49 59 64 68 74 76 75 74 72 68 62 57 51 42 34 32 31 31 31 31 31 32 32 30 26 20 16 16 14 11 11 10 8 6 4 3
0 0 0 0 0 0 0 0 1 2 4 13 27 41 52 62 69 72 71 69 68 68 66 61 57 52 44 37 33 30 28 27 24 26 31 31 29 26 22 21 23 20 16 15 14 11 8 6 4
0 0 0 0 0 0 0 0 1 2 5 10 17 28 43 57 67 70 68 64 63 64 64 60 56 51 43 37 31 27 25 21 17 21 27 28 26 25 25 25 26 23 19 17 15 13 10 7 5
0 0 0 0 0 0 0 1 2 2 4 8 12 20 32 47 60 67 66 61 59 58 59 59 56 49 41 35 30 25 19 15 13 17 23 23 22 23 25 24 25 25 22 17 14 13 13 10 7
0 0 0 0 0 0 0 0 1 1 3 6 10 17 26 38 52 62 63 59 55 52 51 54 54 49 40 34 31 26 18 12 11 16 20 19 18 20 21 22 24 25 23 17 14 15 16 13 9
0 0 0 0 0 0 0 0 0 1 2 4 10 16 24 33 46 56 58 56 53 48 46 47 49 46 39 33 31 28 22 15 14 16 17 15 15 17 18 20 23 24 21 16 14 16 16 14 11
0 0 0 0 0 0 0 0 1 3 3 4 9 15 20 29 42 52 54 53 51 47 44 44 43 41 38 35 33 31 25 18 15 15 14 12 11 14 16 19 22 21 17 16 16 16 15 13 11
0 0 0 0 0 0 0 0 2 3 3 4 7 10 15 24 38 48 51 50 47 42 39 40 40 38 36 35 33 31 25 17 13 13 12 10 10 12 17 23 23 19 16 18 20 18 15 14 13
0 0 0 0 0 0 0 1 4 3 2 4 5 8 13 22 32 41 44 43 38 34 33 35 37 36 32 30 29 27 23 17 14 12 10 8 9 13 21 27 26 21 18 19 21 20 17 17 18
0 0 0 0 0 0 0 2 5 5 4 4 6 8 14 21 27 33 38 36 32 29 29 30 32 31 27 24 23 22 21 18 15 11 9 8 9 14 23 27 24 21 19 18 18 17 16 18 19
0 0 0 0 0 0 0 2 6 7 5 4 7 12 17 22 26 30 33 33 30 27 25 24 24 23 21 21 21 20 20 18 15 12 10 9 11 15 21 23 20 17 15 14 12 11 12 13 14
0 0 0 0 0 0 1 2 5 6 4 4 9 16 21 24 28 31 31 31 29 24 22 21 19 18 18 19 21 22 21 19 16 14 12 11 12 15 17 19 17 14 11 10 9 9 9 9 9
Wind_Speed
10 13 11 7 4 2 9 13 14 14 14 12 11 13 17 14 9 9 13 20 22 20 18 16 15 15 15 14 14 13 13 13 12 12 11 11 11 10 11 11 11 12 11 11 11 11 11 11 11
11 14 9 4 2 3 10 12 13 13 11 10 12 14 16 15 13 15 16 20 22 20 17 16 17 15 15 14 14 13 13 13 12 12 11 10 10 11 11 11 12 12 12 12 12 12 12 12 11
14 16 6 4 2 5 11 11 11 11 10 10 12 15 14 12 13 14 17 21 21 19 17 17 17 16 15 15 14 13 13 13 12 11 11 11 11 11 11 12 12 12 12 12 12 12 12 11 10
10 6 3 4 2 8 10 9 9 10 9 10 11 11 12 9 11 16 19 20 20 19 18 18 18 17 15 15 14 13 13 12 11 11 11 11 11 11 12 12 12 12 12 12 12 12 11 11 9
9 3 2 4 3 7 9 8 7 8 8 10 14 13 11 10 15 19 18 20 20 20 19 18 18 17 15 15 14 13 13 12 11 11 11 11 11 11 12 12 12 12 12 12 12 11 11 10 8
5 3 4 2 2 5 7 6 6 8 7 8 11 14 9 10 14 16 16 17 18 20 19 17 17 16 15 14 14 13 13 12 11 11 11 11 11 12 12 12 12 12 12 11 11 11 10 9 6
8 6 7 3 2 5 6 5 6 6 5 8 11 12 7 11 13 14 15 14 17 19 18 15 15 14 15 14 13 13 12 12 11 11 11 11 11 11 12 11 11 11 11 11 10 10 9 7 5
9 6 6 5 2 5 5 5 5 5 5 6 7 9 11 13 14 14 14 13 15 17 17 15 15 14 12 12 13 13 12 12 11 11 11 11 11 11 12 11 10 11 10 10 9 9 8 6 4
9 6 5 4 3 4 4 3 4 5 6 7 7 8 17 18 16 14 13 13 14 14 14 15 16 14 13 12 13 13 12 11 11 10 11 11 8 9 9 11 11 10 9 9 8 8 7 6 4
6 5 7 6 4 4 3 3 2 3 6 5 7 11 18 17 16 15 14 13 14 14 12 10 14 13 13 11 10 8 9 9 8 7 9 6 4 5 9 12 11 10 9 8 7 7 7 5 3
9 8 7 6 5 6 6 4 3 1 3 5 10 14 17 16 14 14 14 13 13 13 11 11 12 10 9 8 8 6 5 6 6 7 6 4 4 5 7 5 6 6 8 6 6 6 3 3 2
10 11 9 7 6 6 8 7 5 2 2 6 12 16 16 16 14 13 13 13 13 11 10 10 10 7 7 7 6 5 5 5 5 6 6 4 3 4 4 3 5 4 3 3 3 2 3 2 1
10 11 11 9 8 8 8 8 5 1 4 8 11 15 15 14 13 12 11 11 12 11 10 9 9 7 6 5 4 5 5 6 6 5 4 4 4 4 4 3 2 3 3 3 3 2 3 2 1
11 12 11 11 11 10 8 7 5 2 4 7 11 13 14 13 14 12 11 11 11 11 9 9 9 7 6 5 2 2 4 4 5 5 6 5 4 4 4 3 2 2 2 2 2 3 3 2 1
12 13 13 13 12 9 7 6 3 3 3 5 9 10 13 12 13 12 12 11 11 10 10 9 9 9 7 6 5 3 3 5 5 5 5 4 3 5 3 3 3 2 3 3 2 2 2 2 2
14 13 14 13 9 7 8 6 4 5 5 4 7 9 11 10 12 12 12 10 10 11 11 10 10 10 9 6 5 3 3 4 4 5 5 5 4 5 3 3 3 3 3 3 2 2 2 2 1
14 14 13 9 8 6 7 6 4 5 5 5 6 8 10 10 10 11 12 11 10 10 11 10 9 10 9 7 4 3 2 2 3 4 5 5 5 5 3 2 3 3 2 3 3 2 1 1 1
12 10 10 7 5 6 7 7 4 5 4 6 7 8 9 10 10 11 11 11 10 10 10 10 9 10 9 6 4 3 3 3 3 3 4 6 5 5 3 3 4 3 2 2 2 3 1 1 1
14 14 12 7 4 5 8 9 5 4 3 5 7 8 10 10 10 10 11 11 11 10 10 10 10 10 8 6 6 5 4 3 3 4 6 6 5 5 3 2 4 2 2 3 3 3 3 2 2
12 13 13 10 6 6 10 10 6 4 5 5 7 9 10 10 10 11 10 10 11 10 10 10 10 10 9 6 5 4 4 3 3 3 5 6 5 5 5 3 3 3 2 2 2 2 1 2 2
12 13 12 11 9 9 11 11 7 3 3 5 7 8 8 11 11 11 11 10 11 11 11 10 10 10 10 8 5 4 3 2 3 3 3 4 5 5 3 4 3 3 3 3 3 3 3 2 2
12 12 12 12 11 9 11 8 3 3 4 5 6 7 8 8 11 11 11 10 11 11 11 10 10 9 8 8 7 8 6 5 5 4 4 5 5 5 5 5 4 3 2 3 4 4 2 2 2
13 12 10 11 11 12 12 10 3 5 4 5 7 7 9 10 10 11 10 10 10 10 10 9 9 9 9 8 8 8 6 5 4 4 5 5 5 5 5 5 4 4 3 4 3 2 2 2 2
12 11 11 12 11 13 13 11 5 4 5 5 7 8 8 9 10 10 9 8 8 9 9 9 9 9 9 9 8 8 8 7 6 5 5 5 4 4 6 6 5 5 4 3 3 2 3 2 1
12 10 8 9 9 8 9 8 3 8 6 5 7 9 8 8 9 10 9 8 8 9 9 9 9 8 8 9 8 8 8 7 7 6 6 6 5 5 6 6 5 4 4 4 4 3 2 3 2
13 14 11 9 5 3 6 6 2 6 8 7 7 8 7 9 10 10 10 9 8 8 8 8 8 8 7 8 7 7 7 5 5 6 5 5 4 5 6 5 5 5 5 5 4 3 4 4 3
15 14 15 14 13 9 8 7 3 4 7 7 8 9 7 7 10 10 10 9 8 7 7 7 7 7 6 7 6 6 6 5 5 5 5 3 3 4 6 6 5 5 5 4 4 3 4 4 4
16 13 9 11 10 11 7 3 1 4 4 6 8 9 9 8 9 10 9 9 8 7 6 5 6 5 5 6 5 5 5 5 5 4 5 4 3 3 4 5 5 4 4 4 4 3 3 3 2
14 14 12 9 9 10 6 1 1 2 5 7 8 10 10 10 10 8 7 8 8 8 7 6 6 5 5 5 4 4 4 5 4 4 4 4 3 3 4 4 4 4 4 4 4 3 3 3 2
14 14 13 10 9 10 9 2 6 7 6 5 8 9 10 10 10 10 8 7 7 8 7 6 6 5 4 4 4 4 4 4 4 4 4 4 4 4 4 4 4 4 4 3 4 4 3 3 3
Wind_Direction
248 246 238 253 254 247 72 74 72 69 67 62 57 65 68 62 76 97 122 122 120 124 129 131 128 125 123 122 121 121 120 117 114 109 106 103 101 99 98 97 96 97 98 100 101 102 103 104 103
269 262 248 258 273 78 78 75 73 73 73 72 66 67 74 71 86 110 121 122 124 128 135 132 130 127 125 123 122 121 120 119 116 112 109 106 104 102 101 100 99 98 99 101 101 102 104 105 106
266 267 265 242 204 87 84 81 85 83 76 75 75 67 67 84 98 117 126 131 128 130 128 128 134 131 129 127 126 124 123 121 119 115 112 108 105 104 102 101 100 100 100 100 100 101 103 105 107
264 267 270 272 77 89 92 89 91 91 81 77 75 74 74 79 108 122 134 134 128 129 128 134 136 134 133 132 131 129 126 124 122 118 114 110 107 104 103 103 103 102 101 100 99 99 102 106 108
261 264 277 294 38 79 81 85 87 88 85 87 88 86 82 89 111 127 141 135 135 133 130 137 138 137 136 135 134 133 131 128 125 121 117 114 110 107 107 107 105 105 104 102 101 101 102 105 108
267 269 272 259 77 82 83 86 84 71 78 88 97 95 95 115 123 138 143 138 136 130 131 135 139 140 139 139 138 137 135 131 128 125 120 116 114 112 111 110 109 109 107 105 104 104 104 106 107
267 276 281 281 102 80 72 73 72 83 77 81 95 102 124 136 135 143 140 137 131 127 132 142 143 143 143 142 142 141 138 134 133 130 127 124 122 120 118 115 114 112 110 108 106 107 109 111 112
269 292 310 310 65 76 63 63 73 63 68 81 100 125 147 142 145 142 141 137 128 133 140 146 148 146 150 148 148 145 142 140 140 139 138 135 133 131 129 125 120 119 117 115 114 113 118 124 132
277 292 300 299 357 56 48 32 67 82 67 52 54 107 137 143 147 146 145 140 134 137 144 154 148 152 157 154 150 150 149 149 149 151 152 151 154 145 149 125 130 129 128 127 128 129 135 145 161
248 262 289 303 345 4 6 357 358 99 102 99 98 108 131 146 152 156 154 152 146 145 151 152 146 158 163 153 148 159 163 158 174 160 166 179 161 144 130 133 140 141 142 145 149 153 165 185 178
256 262 266 287 325 338 320 313 303 104 111 148 144 142 145 152 159 162 160 160 155 151 152 151 151 160 155 140 159 167 162 159 179 160 165 164 144 134 130 146 148 156 165 169 156 177 197 207 183
258 277 289 301 321 306 301 303 309 347 94 132 149 148 152 161 166 168 166 163 156 155 156 152 143 150 140 145 160 159 157 163 157 152 174 158 152 143 144 151 162 168 176 163 166 171 164 190 185
260 271 279 288 288 282 287 289 290 305 107 121 137 146 157 164 167 169 162 159 153 155 157 146 141 139 127 124 155 166 157 159 150 155 183 162 158 146 142 143 160 169 157 163 173 165 142 157 150
282 281 282 280 276 272 274 284 278 246 121 137 148 152 162 164 166 166 163 160 155 156 152 145 142 140 133 135 171 164 156 144 147 161 171 180 157 137 144 152 163 162 150 150 153 143 141 163 132
277 280 276 263 259 263 279 281 243 201 170 160 151 158 157 162 164 165 165 159 159 153 150 149 152 153 155 162 190 177 173 157 160 155 158 179 161 140 150 154 172 165 140 140 151 148 148 171 165
267 262 261 255 241 244 258 261 210 197 191 171 159 160 154 156 164 162 159 158 157 155 155 159 165 163 166 173 195 187 188 156 154 147 156 174 155 150 163 171 165 155 156 164 146 178 168 154 160
254 247 253 239 213 238 261 272 190 203 181 166 164 158 152 155 161 155 156 158 157 158 158 162 161 158 166 174 187 198 184 152 155 151 154 164 168 159 179 171 138 169 170 165 177 156 149 149 158
267 266 264 256 212 237 268 277 216 204 188 176 162 155 152 161 163 154 153 157 158 160 161 164 163 160 165 170 178 197 184 169 169 157 151 157 170 169 181 169 163 188 162 146 118 121 131 164 210
281 297 297 293 274 272 281 282 258 205 204 168 157 158 161 163 157 153 157 161 164 166 168 169 171 166 167 173 179 183 185 185 178 170 159 165 177 170 187 183 157 185 155 155 157 159 174 209 211
275 281 283 283 273 271 280 280 267 219 199 175 170 166 159 155 155 154 158 164 167 170 172 172 174 171 175 179 177 177 176 187 186 180 159 170 171 174 185 180 180 172 152 171 183 165 179 225 205
263 267 276 285 286 269 268 267 251 238 215 176 167 157 158 157 159 162 166 171 170 171 173 175 176 177 180 175 169 173 167 183 189 170 166 176 173 183 186 168 193 164 177 178 186 190 196 233 240
257 260 268 276 278 276 273 270 226 187 209 185 159 151 153 155 159 162 169 173 174 172 171 170 173 176 179 178 178 179 185 191 190 175 173 180 184 186 182 178 186 181 191 164 195 192 200 214 251
260 277 278 274 272 272 272 271 231 170 199 180 159 156 146 157 161 156 167 171 172 170 169 169 169 175 179 185 187 190 193 190 184 175 177 184 184 189 186 181 181 186 200 186 195 159 181 215 239
257 266 267 264 263 257 257 259 231 155 165 159 141 140 139 148 146 147 154 152 159 164 167 168 170 176 180 187 191 195 194 188 183 183 182 185 184 191 195 187 179 188 200 183 173 177 197 216 278
233 244 249 243 240 258 275 260 215 140 138 124 129 131 135 135 136 139 143 149 157 165 167 168 171 176 179 185 192 193 197 195 194 190 192 193 191 195 198 193 180 192 194 180 178 182 211 210 214
226 232 243 261 258 285 297 271 223 131 117 117 121 125 137 140 137 138 144 152 156 162 164 166 169 175 181 186 192 194 193 195 201 199 198 198 202 197 186 183 181 193 189 191 180 192 201 202 208
239 234 249 263 270 255 210 206 148 115 130 135 131 128 127 130 133 137 142 146 148 152 152 159 159 169 180 187 186 188 188 193 197 192 202 202 198 192 172 175 180 188 190 195 184 206 214 182 195
244 244 245 258 273 276 255 208 160 162 154 153 145 136 131 140 138 137 140 140 144 143 139 140 145 157 168 175 180 181 184 188 187 189 192 194 191 185 164 173 179 181 182 187 193 209 196 176 192
218 240 252 265 266 272 274 185 120 193 212 173 155 139 142 141 124 120 128 133 135 134 136 139 137 146 157 164 167 170 175 180 182 184 184 181 173 161 167 169 175 177 180 177 181 208 179 174 188
229 229 230 243 260 272 279 176 171 192 198 169 140 127 120 121 122 127 133 133 136 137 136 135 139 145 146 149 154 166 168 169 171 175 177 172 162 156 158 160 161 170 167 167 173 195 176 158 168